Location: Kutna Hora
(49.9500°N, 15.2670°E)
Time: 08:26:22
(UTC+02:00)

ISS - Pass Details

Date: 25 March 2019
Orbit: 408 x 410 km, 51.6° (Epoch: 21 April)

Event Time Altitude Azimuth Distance (km) Brightness Sun altitude
Rises 20:13:22 0° 256° (WSW) 2,332 0.8 -18.4°
Reaches altitude 10° 20:15:27 10° 257° (WSW) 1,472 -0.3 -18.7°
Maximum altitude 20:18:45 83° 345° (NNW) 417 -3.9 -19.2°
Enters shadow 20:19:03 71° 53° (NE) 436 -3.9 -19.2°
